Weather History for 94578 - July, 2013

Change the Weather History Date:

Friday, July 12, 2013

  Actual Average Record
Temperature  
Mean Temperature 60 °F -  
Max Temperature 67 °F 70 °F - ()
Min Temperature 52 °F 49 °F - ()
Degree Days  
Heating Degree Days 6    
Growing Degree Days 10 (Base 50)    
Moisture  
Dew Point 54 °F    
Average Humidity 77    
Maximum Humidity 100    
Minimum Humidity 53    
Precipitation  
Precipitation 0.00 in 0.08 in - ()
Sea Level Pressure  
Sea Level Pressure 30.36 in    
Wind  
Wind Speed 7 mph ()    
Max Wind Speed 10 mph    
Max Gust Speed -    
Visibility 9.5 miles    
Events      
T = Trace of Precipitation, MM = Missing Value Source: Averaged Metar Reports

Daily Weather History Graph

Daily Weather History Graph

Search for Another Location

Airport or City:

Trip Planner

Search our weather history database for the weather conditions in past years. The results will help you decide how hot, cold, wet, or windy it might be!

Date:

Astronomy

Jul. 12, 2013 Rise Set
Actual Time 6:37 AM AEST 5:09 PM AEST
Civil Twilight 6:11 AM AEST 5:34 PM AEST
Nautical Twilight 5:43 AM AEST 6:03 PM AEST
Astronomical Twilight 5:14 AM AEST 6:31 PM AEST
Moon 8:44 AM AEST (7/12) 8:41 PM AEST (7/12)
Length of Visible Light 11h 22m
Length of Day
10h 31m
Waxing Crescent, 13% of the Moon is Illuminated
Jul 12
Waxing Crescent
Jul 16
First Quarter
Jul 23
Full
Jul 30
Last Quarter
Aug 7
New

Hourly Weather History & Observations

Time (AEST) Temp. Dew Point Humidity Pressure Visibility Wind Dir Wind Speed Gust Speed Precip Events Conditions
12:00 AM 57 °F 52 °F 78% 30.42 in 19 mi South 5.8 mph - -   Partly Cloudy
12:00 AM 57.2 °F 51.8 °F 82% 30.42 in - South 5.8 mph - N/A   Clear
12:30 AM 57.2 °F 51.8 °F 82% 30.42 in - SSW 5.8 mph - N/A   Clear
1:00 AM 56 °F 52 °F 80% 30.38 in - SSW 8.1 mph - -  
1:00 AM 55.4 °F 51.8 °F 88% 30.39 in - SSW 6.9 mph - N/A   Clear
1:30 AM 57.2 °F 51.8 °F 82% 30.39 in 6.2 mi SSW 6.9 mph - N/A   Mostly Cloudy
2:00 AM 57.2 °F 53.6 °F 88% 30.39 in 6.2 mi South 5.8 mph - N/A   Mostly Cloudy
2:30 AM 57.2 °F 51.8 °F 82% 30.39 in 6.2 mi SSW 8.1 mph - N/A   Mostly Cloudy
3:00 AM 56 °F 52 °F 83% 30.39 in 19 mi SSW 9.2 mph - -   Partly Cloudy
3:00 AM 55.4 °F 51.8 °F 88% 30.39 in - SSW 9.2 mph - N/A   Clear
3:30 AM 53.6 °F 51.8 °F 94% 30.36 in - SSW 9.2 mph - N/A   Clear
4:00 AM 56 °F 52 °F 80% 30.38 in - SSW 8.1 mph - -  
4:00 AM 55.4 °F 51.8 °F 88% 30.36 in - SSW 8.1 mph - N/A   Clear
4:30 AM 55.4 °F 51.8 °F 88% 30.36 in - SSW 5.8 mph - N/A   Clear
5:00 AM 55.4 °F 53.6 °F 94% 30.36 in - SSW 9.2 mph - N/A   Clear
5:30 AM 55.4 °F 51.8 °F 88% 30.39 in - SSW 8.1 mph - N/A   Clear
6:00 AM 54 °F 52 °F 90% 30.39 in 19 mi SSW 8.1 mph - -   Partly Cloudy
6:00 AM 55.4 °F 51.8 °F 88% 30.39 in 6.2 mi SSW 8.1 mph - N/A   Mostly Cloudy
6:30 AM 53.6 °F 51.8 °F 94% 30.39 in - SSW 9.2 mph - N/A   Clear
7:00 AM 61 °F 53 °F 67% 30.42 in 19 mi South 8.1 mph - -   Partly Cloudy
7:00 AM 51.8 °F 51.8 °F 100% 30.39 in - SSW 8.1 mph - N/A   Clear
7:30 AM 55.4 °F 51.8 °F 88% 30.39 in 6.2 mi SSW 8.1 mph - N/A   Scattered Clouds
8:00 AM 61 °F 53 °F 67% 30.42 in 19 mi South 8.1 mph - -   Partly Cloudy
8:00 AM 57.2 °F 53.6 °F 88% 30.39 in 6.2 mi SW 10.4 mph - N/A   Scattered Clouds
8:30 AM 59.0 °F 51.8 °F 77% 30.39 in 6.2 mi SSW 6.9 mph - N/A   Mostly Cloudy
9:00 AM 61 °F 53 °F 67% 30.42 in 19 mi South 8.1 mph - -   Partly Cloudy
9:00 AM 60.8 °F 53.6 °F 77% 30.42 in 6.2 mi South 8.1 mph - N/A   Scattered Clouds
9:30 AM 62.6 °F 53.6 °F 72% 30.42 in 6.2 mi SSE 8.1 mph - N/A   Mostly Cloudy
10:00 AM 66 °F 56 °F 62% 30.37 in 19 mi East 9.2 mph - -   Partly Cloudy
10:00 AM 62.6 °F 53.6 °F 72% 30.39 in 6.2 mi SSE 8.1 mph - N/A   Mostly Cloudy
10:30 AM 64.4 °F 55.4 °F 73% 30.39 in 6.2 mi SSE 6.9 mph - N/A   Mostly Cloudy
11:00 AM 66.2 °F 53.6 °F 64% 30.39 in 6.2 mi ESE 8.1 mph - N/A   Mostly Cloudy
11:30 AM 66.2 °F 55.4 °F 68% 30.36 in 6.2 mi ESE 8.1 mph - N/A   Mostly Cloudy
12:00 PM 66 °F 56 °F 62% 30.37 in 19 mi East 9.2 mph - -   Partly Cloudy
12:00 PM 66.2 °F 55.4 °F 68% 30.36 in 6.2 mi East 9.2 mph - N/A   Mostly Cloudy
12:30 PM 66.2 °F 53.6 °F 64% 30.36 in 6.2 mi SE 10.4 mph - N/A   Mostly Cloudy
1:00 PM 67 °F 54 °F 53% 30.34 in - ESE 9.2 mph - -  
1:00 PM 66.2 °F 53.6 °F 64% 30.33 in 6.2 mi ESE 9.2 mph - N/A   Mostly Cloudy
1:30 PM 66.2 °F 53.6 °F 64% 30.33 in 6.2 mi ESE 9.2 mph - N/A   Mostly Cloudy
2:00 PM 66.2 °F 55.4 °F 68% 30.33 in 6.2 mi SE 9.2 mph - N/A   Mostly Cloudy
2:30 PM 66.2 °F 53.6 °F 64% 30.30 in 6.2 mi SE 8.1 mph - N/A   Mostly Cloudy
3:00 PM 66 °F 54 °F 55% 30.32 in 19 mi ESE 8.1 mph - -   Partly Cloudy
3:00 PM 66.2 °F 53.6 °F 64% 30.30 in 6.2 mi ESE 8.1 mph - N/A   Mostly Cloudy
3:30 PM 66.2 °F 53.6 °F 64% 30.30 in 6.2 mi ESE 8.1 mph - N/A   Mostly Cloudy
4:00 PM 63 °F 56 °F 71% 30.32 in 19 mi ESE 5.8 mph - -   Partly Cloudy
4:00 PM 64.4 °F 55.4 °F 73% 30.30 in 6.2 mi ESE 6.9 mph - N/A   Mostly Cloudy
4:30 PM 64.4 °F 53.6 °F 68% 30.30 in 6.2 mi ESE 6.9 mph - N/A   Mostly Cloudy
5:00 PM 63 °F 56 °F 71% 30.32 in 19 mi ESE 5.8 mph - -   Partly Cloudy
5:00 PM 64.4 °F 53.6 °F 68% 30.30 in 6.2 mi ESE 5.8 mph - N/A   Mostly Cloudy
5:30 PM 64.4 °F 53.6 °F 68% 30.30 in 6.2 mi ESE 5.8 mph - N/A   Mostly Cloudy
6:00 PM 63 °F 56 °F 71% 30.32 in 19 mi ESE 5.8 mph - -   Partly Cloudy
6:00 PM 62.6 °F 55.4 °F 77% 30.30 in - ESE 5.8 mph - N/A   Clear
6:30 PM 62.6 °F 57.2 °F 82% 30.30 in 6.2 mi SE 4.6 mph - N/A   Scattered Clouds
7:00 PM 62 °F 56 °F 75% 30.32 in - SSE 4.6 mph - -  
7:00 PM 62.6 °F 55.4 °F 77% 30.30 in 6.2 mi SSE 4.6 mph - N/A   Scattered Clouds
7:30 PM 62.6 °F 55.4 °F 77% 30.33 in 6.2 mi SSE 3.5 mph - N/A   Mostly Cloudy
8:00 PM 60.8 °F 55.4 °F 82% 30.33 in 6.2 mi SSE 4.6 mph - N/A   Mostly Cloudy
8:30 PM 60.8 °F 55.4 °F 82% 30.33 in 6.2 mi SE 2.3 mph - N/A   Mostly Cloudy
9:00 PM 60 °F 56 °F 82% 30.33 in 16 mi Calm Calm - -   Partly Cloudy
9:00 PM 59.0 °F 55.4 °F 88% 30.33 in 6.2 mi Calm Calm - N/A   Mostly Cloudy
9:30 PM 60.8 °F 55.4 °F 82% 30.33 in 6.2 mi South 4.6 mph - N/A   Mostly Cloudy
10:00 PM 60 °F 56 °F 83% 30.34 in - South 8.9 mph - -  
10:00 PM 59.0 °F 55.4 °F 88% 30.33 in 6.2 mi South 4.6 mph - N/A   Mostly Cloudy
10:30 PM 59.0 °F 55.4 °F 88% 30.33 in 6.2 mi SSW 4.6 mph - N/A   Mostly Cloudy
11:00 PM 59.0 °F 55.4 °F 88% 30.33 in 6.2 mi SW 5.8 mph - N/A   Mostly Cloudy
11:30 PM 57.2 °F 55.4 °F 94% 30.33 in 6.2 mi SSW 5.8 mph - N/A   Mostly Cloudy